Regional Weather Roundup
Issued by NWS Jackson, KY

Home | Current Version | Previous Version | Text Only | Print | Product List | Glossary Off
Versions: 1 2 3 4 5 6 7 8 9 10 11 12 13 14 15 16 17 18 19 20 21 22 23 24 25 26 27 28 29 30 31 32 33 34 35 36 37 38 39 40 41 42 43 44 45 46 47 48 49 50

000
ASUS43 KJKL 300310
RWRJKL

EAST KENTUCKY HOURLY WEATHER ROUNDUP
NATIONAL WEATHER SERVICE JACKSON KY
1100 PM EDT MON JUN 29 2015

NOTE: "FAIR" INDICATES FEW OR NO CLOUDS BELOW 12,000 FEET WITH
NO SIGNIFICANT WEATHER AND/OR OBSTRUCTIONS TO VISIBILITY.

* THESE REPORTS ARE NOT UNDER NWS QUALITY CONTROL AND MAY NOT
  REPORT WEATHER SUCH AS PRECIPITATION AND FOG.

KYZ079-080-083-085-087-088-110-112-115-119-120-300400
...EASTERN KENTUCKY...

CITY           SKY/WX    TMP DP  RH WIND       PRES   REMARKS
JACKSON        CLOUDY    68  64  87 VRB3      29.92R
LONDON         CLOUDY    70  64  81 SW5       29.93R
SOMERSET*      PTCLDY    64  64 100 CALM      29.93S
MONTICELLO*    CLOUDY    68  68 100 CALM      29.95R
MIDDLESBORO*   DRIZZLE   66  66  99 CALM      29.95S
HARLAN APT*      N/A     66  66 100 CALM      29.96R
HAZARD APT*    CLEAR     68  66  94 S6        29.93R
BLACK MTN*       N/A     61  61 100 S5          N/A
PIKEVILLE APT* MOCLDY    68  64  88 SW3       29.92R
BIG SANDY*     CLOUDY    72  64  76 S10       29.91R
MOREHEAD APT*  CLOUDY    66  63  88 CALM      29.90R
$$

KYZ035-036-041-042-044-050-067-078-099-300400
...CENTRAL KENTUCKY...

CITY           SKY/WX    TMP DP  RH WIND       PRES   REMARKS
MT STERLING*   MOCLDY    66  64  94 SW6       29.90R
FLEMING/MASON* MOCLDY   N/A N/A N/A S5        29.88R
DANVILLE*      MOCLDY    68  64  88 SW6       29.91R
RICHMOND*      MOCLDY    68  63  83 SW12      29.90R
LEXINGTON      PTCLDY    69  66  90 SW7       29.89R
FRANKFORT      CLEAR     69  66  90 SW3       29.86R
$$

KYZ091>093-OHZ055-061-077-WVZ005-015-034-035-042-300400
...SOUTHERN OHIO/WEST VIRGINIA...

CITY           SKY/WX    TMP DP  RH WIND       PRES   REMARKS
COVINGTON      PTCLDY    69  65  86 SW3       29.84R
COLUMBUS       CLOUDY    64  63  94 SE5       29.83R
DAYTON         MOCLDY    65  62  90 CALM      29.85R
WILMINGTON     CLEAR     65  63  93 SW3       29.84R
HUNTINGTON     CLOUDY    67  66  97 S3        29.87R
CHARLESTON     CLOUDY    67  65  93 E3        29.87F
PINEVILLE*     CLOUDY    67  65  91 MISG      30.00R
BECKLEY        CLOUDY    69  56  62 S10       29.99R
BLUEFIELD      MOCLDY    71  55  56 S13       30.02R
$$

VAZ002-007-008-TNZ017-027-036-066-071-300400
...SOUTHWEST VIRGINIA/EAST TENNESSEE...

CITY           SKY/WX    TMP DP  RH WIND       PRES   REMARKS
WISE*          LGT RAIN  66  64  94 SW9       30.01F
JONESVILLE*      N/A    N/A N/A N/A MISG        N/A
ABINGDON*      CLOUDY    69  65  86 CALM      30.00F
BRISTOL        TSTM      75  63  66 W7        29.97S
KNOXVILLE      CLOUDY    77  64  64 SW7       29.93S
OAK RIDGE      LGT RAIN  71  63  75 VRB5      29.99R
CROSSVILLE     CLOUDY    74  64  71 CALM      29.99R
NASHVILLE      TSTM      72  71  97 SW8       29.93R
$$

...KEY TO REMARKS...
VSB - VISIBILITY IN MILES
WCI - WIND CHILL INDEX
HX  - HEAT INDEX

$$



USA.gov is the U.S. government's official web portal to all federal, state and local government web resources and services.